Tucson, AZ

8:24 AM MST on October 19, 2017 (GMT -0700)
Tucson International

Weather History for KTUS - October, 2013

Change the Weather History Date:

Thursday, October 24, 2013

  Actual Average Record
Temperature  
Mean Temperature 75 °F 68 °F  
Max Temperature 91 °F 82 °F 96 °F (1959)
Min Temperature 58 °F 54 °F 33 °F (1935)
Degree Days  
Heating Degree Days 0 1  
Month to date heating degree days 2 10  
Since 1 July heating degree days 2 10  
Cooling Degree Days 10 4  
Month to date cooling degree days 153 186  
Year to date cooling degree days 3574 3093  
Growing Degree Days 24 (Base 50)    
Moisture  
Dew Point 22 °F    
Average Humidity 17    
Maximum Humidity 25    
Minimum Humidity 8    
Precipitation  
Precipitation 0.00 in 0.02 in 0.50 in (1925)
Month to date precipitation 0.00 0.73  
Year to date precipitation 5.48 9.93  
Snow  
Snow 0.00 in - - ()
Month to date snowfall 0.0  
Snow Depth 0.00 in    
Sea Level Pressure  
Sea Level Pressure 29.87 in    
Wind  
Wind Speed 7 mph (SSW)    
Max Wind Speed 16 mph    
Max Gust Speed 23 mph    
Visibility 10 miles    
Events      
T = Trace of Precipitation, MM = Missing Value Source: NWS Daily Summary

Daily Weather History Graph

Daily Weather History Graph

Search for Another Location

Airport or City:

Trip Planner

Search our weather history database for the weather conditions in past years. The results will help you decide how hot, cold, wet, or windy it might be!

Date:

Astronomy

Oct. 24, 2013 Rise Set
Actual Time 6:34 AM MST 5:40 PM MST
Civil Twilight 6:09 AM MST 6:05 PM MST
Nautical Twilight 5:40 AM MST 6:34 PM MST
Astronomical Twilight 5:12 AM MST 7:03 PM MST
Moon 10:15 PM MST (10/24) 11:30 AM MST (10/24)
Length of Visible Light 11h 56m
Length of Day
11h 06m
Waning Gibbous, 70% of the Moon is Illuminated
Oct 24
Waning Gibbous
Oct 26
Last Quarter
Nov 3
New
Nov 9
First Quarter
Nov 17
Full

Hourly Weather History & Observations

Time (MST) Temp. Dew Point Humidity Pressure Visibility Wind Dir Wind Speed Gust Speed Precip Events Conditions
12:53 AM 63.0 °F 19.9 °F 19% 29.85 in 10.0 mi SE 10.4 mph - N/A   Clear
1:53 AM 63.0 °F 19.9 °F 19% 29.85 in 10.0 mi SSE 9.2 mph - N/A   Clear
2:53 AM 63.0 °F 19.9 °F 19% 29.86 in 10.0 mi SE 8.1 mph - N/A   Clear
3:53 AM 62.1 °F 21.9 °F 21% 29.86 in 10.0 mi SE 8.1 mph - N/A   Clear
4:53 AM 60.1 °F 21.0 °F 22% 29.87 in 10.0 mi SE 4.6 mph - N/A   Clear
5:53 AM 60.1 °F 23.0 °F 24% 29.88 in 10.0 mi SE 6.9 mph - N/A   Clear
6:53 AM 57.9 °F 23.0 °F 26% 29.91 in 10.0 mi SSE 9.2 mph - N/A   Clear
7:53 AM 62.1 °F 23.0 °F 22% 29.92 in 10.0 mi SSE 11.5 mph - N/A   Clear
8:53 AM 71.1 °F 23.0 °F 16% 29.92 in 10.0 mi SSE 9.2 mph - N/A   Clear
9:53 AM 77.0 °F 23.0 °F 13% 29.91 in 10.0 mi South 5.8 mph - N/A   Clear
10:53 AM 82.0 °F 23.0 °F 11% 29.89 in 10.0 mi SSW 4.6 mph - N/A   Clear
11:53 AM 84.9 °F 26.1 °F 12% 29.86 in 10.0 mi Variable 3.5 mph - N/A   Clear
12:53 PM 88.0 °F 25.0 °F 10% 29.82 in 10.0 mi WNW 3.5 mph - N/A   Clear
1:53 PM 90.0 °F 21.9 °F 8% 29.80 in 10.0 mi WSW 8.1 mph - N/A   Clear
2:53 PM 91.0 °F 24.1 °F 9% 29.79 in 10.0 mi NNW 8.1 mph - N/A   Clear
3:53 PM 89.1 °F 24.1 °F 9% 29.80 in 10.0 mi WNW 10.4 mph 18.4 mph N/A   Clear
4:53 PM 88.0 °F 21.9 °F 9% 29.81 in 10.0 mi NW 15.0 mph - N/A   Clear
5:53 PM 82.9 °F 19.9 °F 10% 29.84 in 10.0 mi NNW 5.8 mph - N/A   Clear
6:53 PM 79.0 °F 19.0 °F 11% 29.88 in 10.0 mi NNW 5.8 mph - N/A   Clear
7:53 PM 75.0 °F 19.9 °F 13% 29.90 in 10.0 mi West 3.5 mph - N/A   Clear
8:53 PM 72.0 °F 21.0 °F 15% 29.91 in 10.0 mi West 9.2 mph - N/A   Clear
9:53 PM 69.1 °F 21.9 °F 17% 29.93 in 10.0 mi West 8.1 mph - N/A   Clear
10:53 PM 68.0 °F 21.9 °F 17% 29.94 in 10.0 mi SW 5.8 mph - N/A   Clear
11:53 PM 64.0 °F 24.1 °F 22% 29.94 in 10.0 mi South 4.6 mph - N/A   Clear